Weather History for Whitefield, NH

Change the Weather History Date:

Thursday, November 28, 2013

  Actual Average Record
Temperature  
Mean Temperature 20 °F -  
Max Temperature 30 °F 36 °F 55 °F (2003)
Min Temperature 10 °F 19 °F 3 °F (1997)
Degree Days  
Heating Degree Days 45    
Moisture  
Dew Point 12 °F    
Average Humidity 72    
Maximum Humidity 81    
Minimum Humidity 53    
Precipitation  
Precipitation 0.01 in - - ()
Sea Level Pressure  
Sea Level Pressure 29.89 in    
Wind  
Wind Speed 11 mph (West)    
Max Wind Speed 20 mph    
Max Gust Speed 26 mph    
Visibility 6 miles    
Events Snow    
Averages and records for this station are not official NWS values.
T = Trace of Precipitation, MM = Missing Value Source: NWS Daily Summary

Daily Weather History Graph

Daily Weather History Graph

Search for Another Location

Airport:

Trip Planner

Search our weather history database for the weather conditions in past years. The results will help you decide how hot, cold, wet, or windy it might be!

Date:

Astronomy

Nov. 28, 2013 Rise Set
Actual Time 6:58 AM EST 4:09 PM EST
Civil Twilight 6:26 AM EST 4:41 PM EST
Nautical Twilight 5:50 AM EST 5:17 PM EST
Astronomical Twilight 5:15 AM EST 5:52 PM EST
Moon 1:48 AM EST (11/28) 1:26 PM EST (11/28)
Length of Visible Light 10h 15m
Length of Day
9h 10m
Waning Crescent, 22% of the Moon is Illuminated
Nov 28
Waning Crescent
Dec 2
New
Dec 9
First Quarter
Dec 17
Full
Dec 25
Last Quarter

Hourly Weather History & Observations

Time (EST) Temp. Windchill Dew Point Humidity Pressure Visibility Wind Dir Wind Speed Gust Speed Precip Events Conditions
12:52 AM 30.9 °F 22.2 °F 25.0 °F 79% 29.46 in 10.0 mi West 10.4 mph - N/A   Overcast
1:44 AM 28.9 °F 17.3 °F 23.0 °F 78% 29.47 in 7.0 mi West 16.1 mph 23.0 mph 0.00 in Snow Light Snow
1:52 AM 28.9 °F 19.2 °F 23.0 °F 78% 29.51 in 9.0 mi West 11.5 mph 23.0 mph 0.00 in   Overcast
2:15 AM 28.0 °F 18.1 °F 23.0 °F 81% 29.50 in 2.0 mi West 11.5 mph 23.0 mph 0.01 in Snow Light Snow
2:33 AM 27.0 °F 15.2 °F 21.9 °F 81% 29.52 in 1.2 mi West 15.0 mph 21.9 mph 0.01 in Snow Light Snow
2:52 AM 26.1 °F 15.0 °F 19.9 °F 78% 29.57 in 1.2 mi WNW 12.7 mph 21.9 mph 0.01 in Snow Light Snow
3:11 AM 25.0 °F 12.6 °F 19.0 °F 78% 29.54 in 2.0 mi WNW 15.0 mph 23.0 mph 0.00 in Snow Light Snow
3:25 AM 25.0 °F 14.2 °F 19.0 °F 78% 29.56 in 5.0 mi WNW 11.5 mph 20.7 mph 0.00 in Snow Light Snow
3:44 AM 25.0 °F 15.5 °F 18.0 °F 75% 29.57 in 9.0 mi West 9.2 mph - 0.00 in   Overcast
3:52 AM 24.1 °F 14.4 °F 16.0 °F 71% 29.62 in 10.0 mi WNW 9.2 mph 21.9 mph 0.00 in   Overcast
4:52 AM 23.0 °F 9.2 °F 15.1 °F 72% 29.67 in 5.0 mi WNW 17.3 mph 24.2 mph 0.00 in Snow Light Snow
5:24 AM 21.9 °F 9.8 °F 15.1 °F 75% 29.66 in 1.8 mi WNW 12.7 mph 18.4 mph 0.00 in Snow Light Snow
5:52 AM 21.0 °F 13.4 °F 15.1 °F 78% 29.75 in 1.8 mi NW 5.8 mph - 0.00 in Snow Light Snow
6:01 AM 21.0 °F 16.2 °F 15.1 °F 78% 29.71 in 2.5 mi Variable 3.5 mph - 0.00 in Snow Light Snow
6:10 AM 21.0 °F 14.6 °F 15.1 °F 78% 29.72 in 3.0 mi WNW 4.6 mph - 0.00 in Snow Light Snow
6:52 AM 21.0 °F 8.1 °F 12.9 °F 71% 29.80 in 9.0 mi West 13.8 mph 18.4 mph 0.00 in   Overcast
7:36 AM 19.9 °F 7.9 °F 12.9 °F 74% 29.80 in 1.8 mi WSW 11.5 mph 19.6 mph 0.00 in Snow Light Snow
7:41 AM 19.9 °F 11.1 °F 14.0 °F 78% 29.80 in 1.0 mi West 6.9 mph 19.6 mph 0.00 in Snow Light Snow
7:52 AM 19.9 °F 8.6 °F 14.0 °F 78% 29.86 in 0.8 mi WSW 10.4 mph 19.6 mph 0.00 in Snow Light Snow
7:59 AM 19.9 °F 9.3 °F 14.0 °F 78% 29.83 in 1.2 mi WSW 9.2 mph 20.7 mph 0.00 in Snow Light Snow
8:08 AM 19.0 °F 7.5 °F 12.9 °F 77% 29.83 in 1.0 mi West 10.4 mph - 0.00 in Snow Light Snow
8:22 AM 19.0 °F 5.6 °F 12.0 °F 74% 29.85 in 2.0 mi West 13.8 mph 25.3 mph 0.00 in Snow Light Snow
8:30 AM 19.0 °F 5.6 °F 10.9 °F 71% 29.86 in 5.0 mi WNW 13.8 mph 19.6 mph 0.00 in   Haze
8:44 AM 18.0 °F 4.2 °F 10.9 °F 74% 29.88 in 2.5 mi West 13.8 mph - 0.00 in Snow Light Snow
8:52 AM 18.0 °F 4.2 °F 10.9 °F 74% 29.94 in 4.0 mi West 13.8 mph - 0.00 in Snow Light Snow
9:52 AM 17.1 °F 2.0 °F 7.0 °F 65% 29.99 in 10.0 mi West 16.1 mph 25.3 mph 0.00 in   Mostly Cloudy
10:52 AM 17.1 °F 1.5 °F 7.0 °F 65% 30.04 in 9.0 mi West 17.3 mph 26.5 mph N/A   Overcast
11:48 AM 19.4 °F 7.9 °F 8.6 °F 63% 30.00 in 10.0 mi West 10.4 mph 21.9 mph N/A   Overcast
11:52 AM 19.9 °F 6.7 °F 8.1 °F 60% 30.05 in 10.0 mi West 13.8 mph 24.2 mph N/A   Overcast
12:52 PM 19.0 °F 6.1 °F 7.0 °F 59% 30.08 in 10.0 mi West 12.7 mph - N/A   Scattered Clouds
1:52 PM 19.9 °F 10.1 °F 9.0 °F 62% 30.11 in 10.0 mi West 8.1 mph - N/A   Mostly Cloudy
2:52 PM 21.0 °F 5.7 °F 6.1 °F 53% 30.14 in 10.0 mi West 19.6 mph - N/A   Clear
3:52 PM 19.0 °F 9.0 °F 7.0 °F 59% 30.19 in 10.0 mi WSW 8.1 mph 17.3 mph N/A   Clear
4:52 PM 19.0 °F 11.1 °F 6.1 °F 57% 30.23 in 10.0 mi Variable 5.8 mph 17.3 mph N/A   Clear
5:52 PM 18.0 °F 8.7 °F 6.1 °F 60% 30.28 in 10.0 mi West 6.9 mph - N/A   Clear
6:52 PM 17.1 °F 10.0 °F 6.1 °F 62% 30.32 in 10.0 mi WSW 4.6 mph - N/A   Clear
7:52 PM 16.0 °F 8.8 °F 6.1 °F 65% 30.35 in 10.0 mi WSW 4.6 mph - N/A   Partly Cloudy
8:52 PM 15.1 °F 7.7 °F 6.1 °F 68% 30.36 in 10.0 mi WSW 4.6 mph - N/A   Clear
9:52 PM 10.0 °F - 5.0 °F 80% 30.38 in 10.0 mi Calm Calm - N/A   Clear
10:52 PM 10.9 °F - 5.0 °F 77% 30.40 in 10.0 mi Calm Calm - N/A   Clear
11:52 PM 10.0 °F - 3.0 °F 73% 30.41 in 10.0 mi Calm Calm - N/A   Partly Cloudy